Find York T1DES

NORAD ID: 64542 Int'l Des: 2025-135 Owner: SDA/YORKSS Country: US operational
LEOCIRCULARRETROGRADESSO

实时位置

正在加载3D地球...

关于 York T1DES

正在加载描述...

即将过境

Passes for default location (London). Set your location on the main map for personalized predictions.

高度历史

Loading altitude history...

两行轨道根数

1 64542U 25135Q 26105.85949707 .00005713 00000-0 23346-3 0 9997
2 64542 97.4623 222.1689 0003748 57.1029 303.0569 15.24763917 45426
Epoch: Apr 15, 2026 • Age: 8 hours

当前状态

高度 496.8 km
速度 7.62 km/s
星下点 -14.71°S, 46.46°W
发射日期 Jun 23, 2025
运行时间 0.8 years
类型 other

技术详情

分类 Payload
质量 100.00 kg
干质量 100.00 kg
总质量 100.00 kg
长度 0.50 m
直径 0.50 m
跨度 0.50 m
形状 Box+2 pan
制造商 YORKSS
平台类型 York
阶段状态 In Orbit
所有者/国家 SDA/YORKSS/US

Most Searched